{"data":{"norad_id":67649,"epoch":"2026-05-25T01:40:24.062016Z","epoch_age_seconds":65641,"freshness":"FRESH","line1":"1 67649U 26022B   26145.06972294  .00012608  00000+0  39221-3 0  9997","line2":"2 67649  97.2845 179.3246 0000776  98.8917 261.2414 15.33444164 17343","mean_motion":15.33444164,"eccentricity":7.76e-5,"inclination_deg":97.2845,"raan_deg":179.3246,"arg_perigee_deg":98.8917,"mean_anomaly_deg":261.2414,"bstar":0.00039221,"rev_number":1734,"period_min":93.90625585243,"perigee_km":465.01459205253,"apogee_km":466.07673160164,"semimajor_km":6843.6826618271,"source":"CELESTRAK","updated_at":"2026-05-25T13:38:21.656320Z"}}